EW2664 Davie FL US current weather conditions

sailwx.info

Wind from 258 at 2 knots gusting 10

Air temperature 31.1° C
Dewpoint 26.6° C

Last reported at 2019-Sep-15 16:05 UTC.
Time now 2019-Sep-15 16:49 UTC

Location: N 26°02' W 080°21'.
View on Google Maps.

See reports from other nearby stations

  
Tides and Currents Weather Stations Pressure Air Temp Water Temp Dewpoint Dewpoint Depression Visibility Wind Speed Wind Dir Waves Ship Positions
date/time (UTC)wind fromknots sea level pressurealtimeterstation pressurevisibilityair tempwater tempwave heightnotes
2019-Sep-15 16:05 258 2 gusting 10 31.1
2019-Sep-15 16:00 275 6 gusting 10 31.1
2019-Sep-15 15:55 259 4 gusting 8 31.1
2019-Sep-15 15:45 243 4 gusting 9 31.1
2019-Sep-15 15:40 229 4 gusting 10 30.6
2019-Sep-15 15:35 218 3 gusting 7 31.1
2019-Sep-15 15:30 291 2 gusting 7 30.6
2019-Sep-15 15:20 244 3 gusting 7 30.6
2019-Sep-15 15:15 260 3 gusting 6 30.6
2019-Sep-15 15:10 218 1 gusting 6 30.6
2019-Sep-15 15:05 288 2 gusting 6 30.0
2019-Sep-15 15:00 228 0 gusting 6 30.0
2019-Sep-15 14:55 311 1 gusting 6 30.0
2019-Sep-15 14:50 294 4 gusting 6 30.0
2019-Sep-15 14:45 289 0 gusting 6 30.0
2019-Sep-15 14:40 224 1 gusting 6 29.4
2019-Sep-15 14:30 255 2 gusting 5 29.4
2019-Sep-15 14:25 277 29.4
2019-Sep-15 14:20 315 1 gusting 6 29.4
2019-Sep-15 14:15 294 0 gusting 3 29.4
2019-Sep-15 14:10 266 29.4
2019-Sep-15 14:05 260 0 gusting 4 28.9
2019-Sep-15 14:00 300 0 gusting 4 28.9
2019-Sep-15 13:55 325 0 gusting 3 28.9
2019-Sep-15 13:50 305 28.9
2019-Sep-15 13:40 297 2 gusting 6 28.3
2019-Sep-15 13:35 283 1 gusting 6 28.3
2019-Sep-15 13:30 273 1 gusting 5 27.8
2019-Sep-15 13:25 294 0 gusting 5 27.8
2019-Sep-15 13:15 283 0 gusting 3 27.2
2019-Sep-15 13:10 284 27.2
2019-Sep-15 13:05 289 0 gusting 3 27.2
2019-Sep-15 13:00 277 0 gusting 3 26.7
2019-Sep-15 12:55 304 0 gusting 3 26.7
2019-Sep-15 12:50 286 26.1
2019-Sep-15 12:45 293 0 gusting 4 26.1
2019-Sep-15 12:40 290 1 gusting 6 26.1
2019-Sep-15 12:35 304 2 gusting 6 26.1
2019-Sep-15 12:30 296 26.1
2019-Sep-15 12:20 275 1 gusting 3 26.1
2019-Sep-15 12:15 292 0 gusting 2 25.6
2019-Sep-15 12:10 290 25.6
2019-Sep-15 12:00 271 1 gusting 2 25.6
2019-Sep-15 11:55 266 25.6
2019-Sep-15 11:50 266 25.6
2019-Sep-15 11:45 279 25.6
2019-Sep-15 11:35 279 25.6
2019-Sep-15 11:30 279 25.6
2019-Sep-15 11:25 279 25.6
2019-Sep-15 11:20 279 25.6
2019-Sep-15 11:10 279 25.6
2019-Sep-15 11:05 279 25.6
2019-Sep-15 11:00 279 0 gusting 1 25.6
2019-Sep-15 10:50 279 25.6
2019-Sep-15 10:45 279 25.6
2019-Sep-15 10:40 279 25.6
2019-Sep-15 10:35 279 25.6
2019-Sep-15 10:30 279 25.6
2019-Sep-15 10:20 279 25.6
2019-Sep-15 10:15 279 25.6
2019-Sep-15 10:10 279 25.6
2019-Sep-15 10:05 279 25.6
2019-Sep-15 09:55 279 25.6
2019-Sep-15 09:50 279 0 gusting 1 25.6
2019-Sep-15 09:45 279 25.6
2019-Sep-15 09:40 279 0 gusting 2 25.6
2019-Sep-15 09:30 279 25.6
2019-Sep-15 09:25 279 25.6
2019-Sep-15 09:20 279 25.6
2019-Sep-15 09:15 279 25.6
2019-Sep-15 09:10 279 25.6
2019-Sep-15 09:05 279 25.6
2019-Sep-15 09:00 279 0 gusting 2 25.6
2019-Sep-15 08:55 279 0 gusting 2 25.6
2019-Sep-15 08:50 279 25.6
2019-Sep-15 08:40 293 25.6
2019-Sep-15 08:35 293 25.6
2019-Sep-15 08:30 293 0 gusting 2 26.1
2019-Sep-15 08:20 302 0 gusting 2 26.1
2019-Sep-15 08:15 248 26.1
2019-Sep-15 08:10 248 0 gusting 2 26.1
2019-Sep-15 08:05 248 26.1
2019-Sep-15 08:00 233 1 gusting 3 26.1
2019-Sep-15 07:55 255 1 gusting 2 26.1
2019-Sep-15 07:50 255 0 gusting 2 26.1
2019-Sep-15 07:45 255 0 gusting 2 26.1
2019-Sep-15 07:40 255 26.1
2019-Sep-15 07:35 255 26.1
2019-Sep-15 07:30 255 1 gusting 2 26.1
2019-Sep-15 07:25 259 26.1
2019-Sep-15 07:20 259 26.1
2019-Sep-15 07:15 259 0 gusting 2 26.1
2019-Sep-15 07:10 259 0 gusting 2 26.1
2019-Sep-15 07:05 260 26.1
2019-Sep-15 07:00 287 26.1
2019-Sep-15 06:55 288 0 gusting 1 26.1
2019-Sep-15 06:45 288 26.1
2019-Sep-15 06:40 288 26.1
2019-Sep-15 06:35 288 0 gusting 2 26.1
2019-Sep-15 06:25 298 26.1
2019-Sep-15 06:20 263 0 gusting 3 26.1
2019-Sep-15 06:15 284 26.1
2019-Sep-15 06:10 284 26.1
2019-Sep-15 06:00 284 0 gusting 1 26.1
2019-Sep-15 05:55 284 26.1
2019-Sep-15 05:50 284 26.7
2019-Sep-15 05:45 300 26.7
2019-Sep-15 05:35 302 26.7
2019-Sep-15 05:30 302 26.7
2019-Sep-15 05:25 306 26.7
2019-Sep-15 05:20 306 26.7
2019-Sep-15 05:10 312 0 gusting 2 26.7
2019-Sep-15 05:05 319 26.7
2019-Sep-15 05:00 320 26.7
2019-Sep-15 04:50 040 27.2
2019-Sep-15 04:45 040 27.2
2019-Sep-15 04:40 040 27.2
2019-Sep-15 04:35 040 27.2
2019-Sep-15 04:25 040 27.2
2019-Sep-15 04:20 040 27.2
2019-Sep-15 04:15 040 26.7
2019-Sep-15 04:10 040 26.7
2019-Sep-15 04:05 309 26.7
2019-Sep-15 04:00 307 26.7
2019-Sep-15 03:55 307 26.7
2019-Sep-15 03:50 307 26.7
2019-Sep-15 03:45 307 26.7
2019-Sep-15 03:40 307 26.7
2019-Sep-15 03:35 312 27.2
2019-Sep-15 03:30 312 27.2
2019-Sep-15 03:25 312 27.2
2019-Sep-15 03:20 321 27.2
2019-Sep-15 03:15 321 27.2
2019-Sep-15 03:10 295 27.2
2019-Sep-15 03:05 295 27.2
2019-Sep-15 02:55 276 1 gusting 3 27.2
2019-Sep-15 02:50 273 1 gusting 2 27.2
2019-Sep-15 02:45 273 27.8
2019-Sep-15 02:40 273 27.8
2019-Sep-15 02:35 271 0 gusting 3 27.8
2019-Sep-15 02:25 271 1 gusting 3 27.8
2019-Sep-15 02:20 065 27.8
2019-Sep-15 02:15 065 27.8
2019-Sep-15 02:10 065 27.8
2019-Sep-15 02:05 065 27.8
2019-Sep-15 02:00 065 27.8
2019-Sep-15 01:55 075 27.8
2019-Sep-15 01:50 075 27.8
2019-Sep-15 01:45 075 27.8
2019-Sep-15 01:40 075 27.8
2019-Sep-15 01:35 075 27.8
2019-Sep-15 01:30 075 27.8
2019-Sep-15 01:25 075 27.8
2019-Sep-15 01:20 075 28.3
2019-Sep-15 01:10 075 28.3
2019-Sep-15 01:05 075 28.3
2019-Sep-15 01:00 075 28.3
2019-Sep-15 00:55 076 28.3
2019-Sep-15 00:45 076 28.3
2019-Sep-15 00:40 076 28.3
2019-Sep-15 00:35 076 0 gusting 3 28.3
2019-Sep-15 00:25 091 28.9
2019-Sep-15 00:20 091 28.9
2019-Sep-15 00:15 091 28.9
2019-Sep-15 00:10 091 28.9
2019-Sep-15 00:05 091 28.9
2019-Sep-15 00:00 091 0 gusting 2 28.9
2019-Sep-14 23:55 091 0 gusting 1 28.9
2019-Sep-14 23:50 091 28.9
2019-Sep-14 23:45 088 28.9
2019-Sep-14 23:40 049 0 gusting 5 28.9
2019-Sep-14 23:35 069 1 gusting 5 28.9
2019-Sep-14 23:30 032 1 gusting 5 28.9
2019-Sep-14 23:25 038 1 gusting 5 29.4
2019-Sep-14 23:20 120 0 gusting 4 29.4
2019-Sep-14 23:15 030 1 gusting 4 29.4
2019-Sep-14 23:10 060 0 gusting 3 29.4
2019-Sep-14 23:05 084 0 gusting 3 29.4
2019-Sep-14 23:00 048 29.4
2019-Sep-14 22:55 052 29.4
2019-Sep-14 22:50 052 29.4
2019-Sep-14 22:40 106 29.4
2019-Sep-14 22:35 115 0 gusting 5 30.0
2019-Sep-14 22:30 115 0 gusting 5 30.0
2019-Sep-14 22:25 116 2 gusting 5 30.0
2019-Sep-14 22:20 107 1 gusting 5 30.0
2019-Sep-14 22:10 108 1 gusting 7 30.0
2019-Sep-14 22:05 101 2 gusting 7 30.0
2019-Sep-14 22:00 088 3 gusting 9 30.0
2019-Sep-14 21:55 123 5 gusting 9 30.0
2019-Sep-14 21:45 119 2 gusting 6 30.6
2019-Sep-14 21:40 057 1 gusting 6 30.6
2019-Sep-14 21:35 099 3 gusting 6 30.6
2019-Sep-14 21:25 057 6 gusting 10 30.6
2019-Sep-14 21:20 107 0 gusting 7 31.1
2019-Sep-14 21:15 081 3 gusting 9 31.1
2019-Sep-14 21:10 127 3 gusting 9 31.1
2019-Sep-14 21:00 005 2 gusting 9 31.7
2019-Sep-14 20:55 096 3 gusting 9 31.7
2019-Sep-14 20:50 056 3 gusting 11 31.7
2019-Sep-14 20:45 130 1 gusting 11 31.7
2019-Sep-14 20:40 108 3 gusting 9 31.7
2019-Sep-14 20:35 113 3 gusting 9 31.7
2019-Sep-14 20:30 112 2 gusting 10 31.7
2019-Sep-14 20:25 032 6 gusting 10 31.7
2019-Sep-14 20:20 038 2 gusting 8 32.2
2019-Sep-14 20:15 072 3 gusting 8 32.2
2019-Sep-14 20:10 054 3 gusting 12 32.2
2019-Sep-14 20:05 106 3 gusting 8 32.2
2019-Sep-14 20:00 055 2 gusting 8 31.7
2019-Sep-14 19:55 046 3 gusting 10 32.2
2019-Sep-14 19:50 134 3 gusting 11 32.2
2019-Sep-14 19:45 061 3 gusting 11 32.2
2019-Sep-14 19:40 125 3 gusting 7 32.2
2019-Sep-14 19:35 100 2 gusting 11 32.2
2019-Sep-14 19:30 005 4 gusting 9 32.2
2019-Sep-14 19:25 030 4 gusting 9 32.8
2019-Sep-14 19:15 073 3 gusting 10 32.2
2019-Sep-14 19:10 026 3 gusting 12 32.2
2019-Sep-14 19:05 091 3 gusting 12 32.2
2019-Sep-14 19:00 360 5 gusting 12 32.2
2019-Sep-14 18:55 043 2 gusting 12 32.8
2019-Sep-14 18:50 127 4 gusting 12 32.2
2019-Sep-14 18:45 057 2 gusting 9 32.2
2019-Sep-14 18:40 036 2 gusting 9 32.2
2019-Sep-14 18:30 061 1 gusting 9 32.2
2019-Sep-14 18:25 074 4 gusting 13 31.7
2019-Sep-14 18:20 051 5 gusting 10 31.7
2019-Sep-14 18:15 049 2 gusting 9 31.7
2019-Sep-14 18:10 018 4 gusting 9 32.2
2019-Sep-14 18:05 040 2 gusting 12 32.2
2019-Sep-14 18:00 350 3 gusting 12 31.7
2019-Sep-14 17:55 028 3 gusting 11 31.7
2019-Sep-14 17:50 092 5 gusting 11 31.7
2019-Sep-14 17:45 071 5 gusting 11 31.7
2019-Sep-14 17:40 093 3 gusting 9 31.1
2019-Sep-14 17:35 169 2 gusting 10 31.1
2019-Sep-14 17:30 110 2 gusting 11 30.6
2019-Sep-14 17:25 079 4 gusting 11 30.6
2019-Sep-14 17:15 053 4 gusting 13 30.0
2019-Sep-14 17:10 040 3 gusting 13 30.0
2019-Sep-14 17:05 032 1 gusting 4 30.0
2019-Sep-14 17:00 035 0 gusting 4 30.0
2019-Sep-14 16:50 070 1 gusting 8 30.0
2019-Sep-14 16:45 127 2 gusting 8 30.6
2019-Sep-14 16:40 061 3 gusting 7 31.1
2019-Sep-14 16:35 348 2 gusting 7 31.1
2019-Sep-14 16:30 321 0 gusting 6 31.1
2019-Sep-14 16:25 339 1 gusting 7 31.1
2019-Sep-14 16:20 019 2 gusting 10 31.1
2019-Sep-14 16:15 040 2 gusting 6 31.1
2019-Sep-14 16:10 051 1 gusting 9 30.6
2019-Sep-14 16:00 355 2 gusting 6 31.1
2019-Sep-14 15:55 043 1 gusting 6 31.1
2019-Sep-14 15:50 053 1 gusting 7 31.1
2019-Sep-14 15:45 047 2 gusting 4 30.6
2019-Sep-14 15:40 013 1 gusting 8 30.6
2019-Sep-14 15:35 015 2 gusting 8 30.6
2019-Sep-14 15:30 049 2 gusting 5 30.6
2019-Sep-14 15:25 040 2 gusting 4 30.6
2019-Sep-14 15:20 032 1 gusting 5 30.6
2019-Sep-14 15:15 034 1 gusting 6 30.6
2019-Sep-14 15:10 026 1 gusting 7 31.1
2019-Sep-14 15:05 034 4 gusting 7 31.1
2019-Sep-14 15:00 051 4 gusting 7 31.1
2019-Sep-14 14:55 026 1 gusting 6 31.1
2019-Sep-14 14:50 040 1 gusting 7 30.6
2019-Sep-14 14:45 025 2 gusting 5 30.6
2019-Sep-14 14:40 051 0 gusting 5 30.6
2019-Sep-14 14:35 040 1 gusting 6 30.6
2019-Sep-14 14:30 035 0 gusting 6 30.0
2019-Sep-14 14:20 027 0 gusting 4 30.0
2019-Sep-14 14:15 034 29.4
2019-Sep-14 14:10 057 0 gusting 6 29.4
2019-Sep-14 14:05 034 1 gusting 6 29.4
2019-Sep-14 14:00 024 2 gusting 5 29.4
2019-Sep-14 13:55 045 0 gusting 5 29.4
2019-Sep-14 13:50 034 0 gusting 5 29.4
2019-Sep-14 13:45 051 0 gusting 4 29.4
2019-Sep-14 13:40 038 0 gusting 4 29.4
2019-Sep-14 13:35 347 0 gusting 4 28.9
2019-Sep-14 13:30 028 0 gusting 4 28.9
2019-Sep-14 13:25 036 28.9
2019-Sep-14 13:20 037 28.9
2019-Sep-14 13:15 040 28.3
2019-Sep-14 13:10 355 0 gusting 3 28.3
2019-Sep-14 13:05 042 28.3
2019-Sep-14 13:00 042 27.8
2019-Sep-14 12:55 042 27.8
2019-Sep-14 12:45 351 27.2
2019-Sep-14 12:40 355 27.2
2019-Sep-14 12:35 360 26.7
2019-Sep-14 12:30 016 26.7
2019-Sep-14 12:25 013 26.7
2019-Sep-14 12:20 310 26.1
2019-Sep-14 12:15 310 26.1
2019-Sep-14 12:10 310 26.1
2019-Sep-14 12:00 310 26.1
2019-Sep-14 11:55 310 26.1
2019-Sep-14 11:50 310 26.1
2019-Sep-14 11:45 039 26.1
2019-Sep-14 11:40 039 26.1
2019-Sep-14 11:30 039 25.6
2019-Sep-14 11:25 040 25.6
2019-Sep-14 11:20 040 25.6
2019-Sep-14 11:15 040 25.6
2019-Sep-14 11:10 040 25.6
2019-Sep-14 11:05 040 25.6
2019-Sep-14 11:00 040 25.6
2019-Sep-14 10:55 040 25.6
2019-Sep-14 10:50 040 25.6
2019-Sep-14 10:45 040 25.6
2019-Sep-14 10:40 038 25.6
2019-Sep-14 10:35 038 25.6
2019-Sep-14 10:30 038 25.6
2019-Sep-14 10:20 038 25.6
2019-Sep-14 10:15 038 25.6
2019-Sep-14 10:10 038 25.6
2019-Sep-14 10:05 038 25.6
2019-Sep-14 10:00 038 25.6
2019-Sep-14 09:55 038 25.6
2019-Sep-14 09:50 038 25.6
2019-Sep-14 09:45 038 25.6
2019-Sep-14 09:40 038 25.6
2019-Sep-14 09:35 030 25.6
2019-Sep-14 09:30 030 25.6
2019-Sep-14 09:25 040 25.6
2019-Sep-14 09:20 040 25.6
2019-Sep-14 09:15 040 25.6
2019-Sep-14 09:10 040 25.6
2019-Sep-14 09:05 040 25.6
2019-Sep-14 09:00 027 0 gusting 1 25.6
2019-Sep-14 08:50 053 25.6
2019-Sep-14 08:45 042 25.6
2019-Sep-14 08:40 059 25.6
2019-Sep-14 08:35 059 25.6
2019-Sep-14 08:30 059 25.6
2019-Sep-14 08:25 059 25.6
2019-Sep-14 08:20 059 25.6
2019-Sep-14 08:15 059 25.6
2019-Sep-14 08:10 059 25.6
2019-Sep-14 08:05 059 25.6
2019-Sep-14 08:00 059 25.6
2019-Sep-14 07:55 059 25.6
2019-Sep-14 07:50 059 25.6
2019-Sep-14 07:40 046 25.6
2019-Sep-14 07:35 046 25.6
2019-Sep-14 07:30 046 25.6
2019-Sep-14 07:25 046 25.6
2019-Sep-14 07:20 046 25.6
2019-Sep-14 07:15 046 25.6
2019-Sep-14 07:10 046 25.6
2019-Sep-14 07:05 046 25.6
2019-Sep-14 07:00 049 25.6
2019-Sep-14 06:55 058 26.1
2019-Sep-14 06:50 044 0 gusting 1 26.1
2019-Sep-14 06:45 030 26.1
2019-Sep-14 06:40 040 0 gusting 2 26.1
2019-Sep-14 06:35 034 26.1
2019-Sep-14 06:30 040 26.1
2019-Sep-14 06:25 038 0 gusting 4 26.1
2019-Sep-14 06:20 046 0 gusting 6 26.7
2019-Sep-14 06:15 108 2 gusting 6 26.7
2019-Sep-14 06:10 019 27.2
2019-Sep-14 06:05 134 27.2
2019-Sep-14 06:00 034 27.2
2019-Sep-14 05:55 051 27.2
2019-Sep-14 05:50 050 27.2
2019-Sep-14 05:40 104 0 gusting 6 27.2
2019-Sep-14 05:35 112 0 gusting 5 27.2
2019-Sep-14 05:30 355 1 gusting 8 27.2
2019-Sep-14 05:25 089 2 gusting 8 27.2
2019-Sep-14 05:20 039 0 gusting 10 27.2
2019-Sep-14 05:10 090 1 gusting 8 27.2
2019-Sep-14 05:05 022 2 gusting 7 27.2
2019-Sep-14 05:00 042 1 gusting 5 27.2
2019-Sep-14 04:50 038 0 gusting 5 27.2
2019-Sep-14 04:45 047 0 gusting 5 27.2
2019-Sep-14 04:40 046 2 gusting 8 27.2
2019-Sep-14 04:35 049 1 gusting 8 27.2
2019-Sep-14 04:30 067 2 gusting 7 27.2
2019-Sep-14 04:25 060 2 gusting 8 27.2
2019-Sep-14 04:20 052 2 gusting 8 27.2
2019-Sep-14 04:15 050 2 gusting 6 27.2
2019-Sep-14 04:10 059 1 gusting 5 27.2
2019-Sep-14 04:05 046 1 gusting 6 27.2
2019-Sep-14 04:00 130 1 gusting 6 27.2
2019-Sep-14 03:55 041 0 gusting 6 27.2
2019-Sep-14 03:50 095 3 gusting 7 27.2
2019-Sep-14 03:40 052 1 gusting 9 27.2
2019-Sep-14 03:35 052 3 gusting 9 27.2
2019-Sep-14 03:30 084 1 gusting 8 27.2
2019-Sep-14 03:25 068 1 gusting 8 27.2
2019-Sep-14 03:20 067 1 gusting 8 27.2
2019-Sep-14 03:15 059 1 gusting 7 27.2
2019-Sep-14 03:10 053 2 gusting 7 27.2
2019-Sep-14 03:05 053 2 gusting 7 27.2
2019-Sep-14 02:55 103 1 gusting 8 27.2
2019-Sep-14 02:50 060 4 gusting 8 27.2
2019-Sep-14 02:45 053 1 gusting 5 27.8
2019-Sep-14 02:40 046 2 gusting 6 27.2
2019-Sep-14 02:35 057 0 gusting 6 27.2
2019-Sep-14 02:30 109 1 gusting 7 27.2
2019-Sep-14 02:25 094 3 gusting 7 27.2
2019-Sep-14 02:20 120 1 gusting 7 27.8
2019-Sep-14 02:15 111 3 gusting 7 27.8
2019-Sep-14 02:10 120 0 gusting 6 27.8
2019-Sep-14 02:05 044 0 gusting 9 27.8
2019-Sep-14 02:00 049 2 gusting 9 27.8
2019-Sep-14 01:55 032 0 gusting 9 27.8
2019-Sep-14 01:50 057 3 gusting 8 27.8
2019-Sep-14 01:45 049 1 gusting 5 27.8
2019-Sep-14 01:40 092 27.8
2019-Sep-14 01:35 084 27.8
2019-Sep-14 01:30 355 0 gusting 6 27.8
2019-Sep-14 01:25 121 27.8
2019-Sep-14 01:20 054 1 gusting 6 27.8
2019-Sep-14 01:15 098 1 gusting 8 27.8
2019-Sep-14 01:10 088 2 gusting 8 27.8
2019-Sep-14 01:05 060 2 gusting 9 27.8
2019-Sep-14 01:00 068 3 gusting 11 27.8
2019-Sep-14 00:55 118 3 gusting 11 27.8
2019-Sep-14 00:50 069 3 gusting 10 27.8
2019-Sep-14 00:45 110 0 gusting 9 27.8
2019-Sep-14 00:35 049 1 gusting 6 27.2
2019-Sep-14 00:30 050 0 gusting 8 27.2
2019-Sep-14 00:25 128 2 gusting 8 27.2
2019-Sep-14 00:15 056 2 gusting 7 27.2
2019-Sep-14 00:10 055 1 gusting 7 27.2
2019-Sep-14 00:05 045 2 gusting 8 27.2
2019-Sep-14 00:00 057 3 gusting 8 27.2
2019-Sep-13 23:50 355 3 gusting 13 26.7
2019-Sep-13 23:45 036 2 gusting 10 26.7
2019-Sep-13 23:40 043 0 gusting 3 27.2
2019-Sep-13 23:30 042 1 gusting 9 27.2
2019-Sep-13 23:25 032 2 gusting 8 27.8
2019-Sep-13 23:20 049 3 gusting 8 27.8
2019-Sep-13 23:10 029 2 gusting 13 27.8
2019-Sep-13 23:05 059 1 gusting 13 27.8
2019-Sep-13 23:00 051 4 gusting 11 27.2
2019-Sep-13 22:50 014 1 gusting 6 27.2
2019-Sep-13 22:45 055 1 gusting 8 27.2
2019-Sep-13 22:40 057 2 gusting 8 27.2
2019-Sep-13 22:35 290 1 gusting 5 27.2
2019-Sep-13 22:25 036 3 gusting 10 26.7
2019-Sep-13 22:20 090 4 gusting 10 26.7
2019-Sep-13 22:15 049 2 gusting 6 26.7
2019-Sep-13 22:10 124 1 gusting 6 26.7
2019-Sep-13 22:05 050 1 gusting 7 26.7
2019-Sep-13 22:00 128 1 gusting 10 27.2
2019-Sep-13 21:55 084 2 gusting 9 27.2
2019-Sep-13 21:50 084 3 gusting 13 27.8
2019-Sep-13 21:45 101 5 gusting 11 28.9
2019-Sep-13 21:40 088 2 gusting 12 28.9
2019-Sep-13 21:35 094 4 gusting 13 28.9
2019-Sep-13 21:30 277 1 gusting 13 28.9
2019-Sep-13 21:20 046 3 gusting 12 28.9
2019-Sep-13 21:15 080 4 gusting 12 28.3
2019-Sep-13 21:10 027 4 gusting 13 28.3
2019-Sep-13 21:05 071 6 gusting 13 28.3
2019-Sep-13 20:55 071 3 gusting 8 28.3
2019-Sep-13 20:50 085 3 gusting 9 28.3
2019-Sep-13 20:45 071 3 gusting 10 27.8
2019-Sep-13 20:40 005 3 gusting 11 27.8
2019-Sep-13 20:35 062 4 gusting 11 27.8
2019-Sep-13 20:30 061 4 gusting 13 27.8
2019-Sep-13 20:25 063 2 gusting 13 27.8
2019-Sep-13 20:20 043 6 gusting 11 27.2
2019-Sep-13 20:15 045 1 gusting 8 27.2
2019-Sep-13 20:10 019 2 gusting 10 27.2
2019-Sep-13 20:05 017 5 gusting 10 27.2
2019-Sep-13 20:00 046 3 gusting 12 27.2
2019-Sep-13 19:55 022 2 gusting 9 27.2
2019-Sep-13 19:45 076 4 gusting 10 26.7
2019-Sep-13 19:40 037 3 gusting 10 26.7
2019-Sep-13 19:35 030 4 gusting 10 26.1
2019-Sep-13 19:30 036 4 gusting 9 26.1
2019-Sep-13 19:25 038 3 gusting 10 26.1
2019-Sep-13 19:20 055 3 gusting 10 26.7
2019-Sep-13 19:15 061 4 gusting 14 27.2
2019-Sep-13 19:10 048 7 gusting 19 28.3
2019-Sep-13 19:05 123 4 gusting 19 29.4
2019-Sep-13 19:00 063 7 gusting 13 31.1
2019-Sep-13 18:55 054 4 gusting 15 31.1
2019-Sep-13 18:50 360 5 gusting 15 31.1
2019-Sep-13 18:45 035 5 gusting 17 31.1
2019-Sep-13 18:40 036 8 gusting 17 30.6
2019-Sep-13 18:35 082 5 gusting 13 31.1
2019-Sep-13 18:30 017 5 gusting 12 30.6
2019-Sep-13 18:25 066 3 gusting 10 30.0
2019-Sep-13 18:15 094 4 gusting 11 29.4
2019-Sep-13 18:10 024 5 gusting 11 28.9
2019-Sep-13 18:05 076 2 gusting 10 28.3
2019-Sep-13 18:00 041 2 gusting 10 27.8
2019-Sep-13 17:55 048 3 gusting 14 28.3
2019-Sep-13 17:50 043 5 gusting 20 28.9
2019-Sep-13 17:45 036 10 gusting 20 31.1
2019-Sep-13 17:40 063 6 gusting 13 31.7
2019-Sep-13 17:30 100 5 gusting 13 31.7
2019-Sep-13 17:25 044 5 gusting 12 31.7
2019-Sep-13 17:20 074 5 gusting 17 31.7
2019-Sep-13 17:15 005 5 gusting 17 31.1
2019-Sep-13 17:10 109 4 gusting 12 31.1
2019-Sep-13 17:05 034 3 gusting 15 30.6
2019-Sep-13 17:00 042 2 gusting 15 30.6
2019-Sep-13 16:50 074 3 gusting 10 32.2
2019-Sep-13 16:45 106 2 gusting 12 31.7
2019-Sep-13 16:40 021 4 gusting 13 32.2
2019-Sep-13 16:35 348 3 gusting 13 32.2
2019-Sep-13 16:25 051 2 gusting 11 31.7
2019-Sep-13 16:20 088 5 gusting 12 31.7
2019-Sep-13 16:15 146 2 gusting 12 31.1
2019-Sep-13 16:10 005 5 gusting 12 31.1
2019-Sep-13 16:05 083 6 gusting 12 31.1
2019-Sep-13 16:00 074 5 gusting 12 31.1